This is the latest recevied weather packets stored in our database for station/object IZ5TJI-3. If no packets are shown the sender has not sent any weather packets the latest 10 day(s).
| Time | Temp. | Humidity | Pressure | Rain* | Wind** | Luminosity | Snow |
|---|---|---|---|---|---|---|---|
| 1777165236 | 6.67° C | 86% | 1016.9 hPa | 0 mm | - | - | - |
| 1777164337 | 6.67° C | 85% | 1017 hPa | 0 mm | - | - | - |
| 1777163437 | 7.22° C | 85% | 1017 hPa | 0 mm | - | - | - |
| 1777162537 | 7.22° C | 85% | 1017 hPa | 0 mm | - | - | - |
| 1777161637 | 7.22° C | 85% | 1017.1 hPa | 0 mm | - | - | - |
| 1777160737 | 7.22° C | 84% | 1017.2 hPa | 0 mm | - | - | - |
| 1777159837 | 7.78° C | 84% | 1017 hPa | 0 mm | - | - | - |
| 1777158937 | 7.78° C | 83% | 1017.2 hPa | 0 mm | - | - | - |
| 1777158037 | 8.33° C | 82% | 1017.1 hPa | 0 mm | - | - | - |
| 1777157137 | 8.33° C | 82% | 1017.1 hPa | 0 mm | - | - | - |
| 1777156237 | 8.89° C | 82% | 1017 hPa | 0 mm | - | - | - |
| 1777155337 | 8.89° C | 81% | 1017 hPa | 0 mm | - | - | - |
| 1777154437 | 9.44° C | 81% | 1017 hPa | 0 mm | - | - | - |
| 1777153537 | 9.44° C | 80% | 1016.9 hPa | 0 mm | - | - | - |
| 1777152638 | 10° C | 79% | 1016.8 hPa | 0 mm | - | - | - |
| 1777151737 | 10° C | 78% | 1016.4 hPa | 0 mm | - | - | - |
| 1777150837 | 10.56° C | 76% | 1016.4 hPa | 0 mm | - | - | - |
| 1777149937 | 11.11° C | 75% | 1016.4 hPa | 0 mm | - | - | - |
| 1777149037 | 11.67° C | 74% | 1016.4 hPa | 0 mm | - | - | - |
| 1777148137 | 12.78° C | 73% | 1016.5 hPa | 0 mm | - | - | - |
| 1777147237 | 13.33° C | 70% | 1016.3 hPa | 0 mm | - | - | - |
| 1777146337 | 13.33° C | 69% | 1016.3 hPa | 0 mm | - | - | - |
| 1777145437 | 13.33° C | 67% | 1016.2 hPa | 0 mm | - | - | - |
| 1777144537 | 13.89° C | 66% | 1016.1 hPa | 0 mm | - | - | - |
| 1777143637 | 14.44° C | 64% | 1015.9 hPa | 0 mm | - | - | - |
* Rain latest hour (hover to see other rain measurements)
** Current wind speed in m/s (hover to see current wind gust speed)